Regional Weather Roundup
Issued by NWS Kansas City/Pleasant Hill, MO

Home | Current Version | Previous Version | Graphics & Text | Print | Product List | Glossary Off
Versions: 1 2 3 4 5 6 7 8 9 10 11 12 13 14 15 16 17 18 19 20 21 22 23 24 25 26 27 28 29 30 31 32 33 34 35 36 37 38 39 40 41 42 43 44 45 46 47 48 49 50

000
ASUS43 KEAX 310910
RWREAX

WEATHER ROUNDUP FOR EASTERN KANSAS AND NORTHWEST MISSOURI
NATIONAL WEATHER SERVICE KANSAS CITY/PLEASANT HILL MO
400 AM CDT FRI JUL 31 2015

KSZ040-057-103>105-MOZ028-029-037-043-311000-
...KANSAS CITY METROPOLITAN AREA...

CITY           SKY/WX    TMP DP  RH WIND       PRES   REMARKS
K.C. INTL      PTCLDY    66  62  87 S6        30.15F
K.C. DOWNTOWN  PTCLDY    68  65  90 CALM      30.15F
LEES SUMMIT    CLEAR     64  61  90 SW5       30.17S
OLATHE - IXD   CLEAR     64  60  87 CALM      30.18S
OLATHE - OJC   CLEAR     64  62  93 CALM      30.16F
LAWRENCE       PTCLDY    61  59  93 CALM      30.17S

$$

MOZ001>008-011>017-020>025-030>033-038>040-044>046-053-054-311000-
...NORTHERN AND CENTRAL MISSOURI...

CITY           SKY/WX    TMP DP  RH WIND       PRES   REMARKS
ST. JOSEPH     FOG       65  64  97 S3        30.15S VSB 3/4
MOSBY          FOG       63  63 100 CALM      30.15S VSB 1/2
WARRENSBURG    PTCLDY    63  61  94 SW3       30.15S
WHITEMAN AFB   CLEAR     65  62  91 S3        30.15S
CLINTON        CLEAR     63  63 100 CALM      30.16F
SEDALIA        CLEAR     68  63  84 SW3       30.16F
WARSAW         NOT AVBL
CHILLICOTHE      N/A     67  66  97 CALM      30.16S
KIRKSVILLE     CLEAR     67  63  87 W3        30.15F

$$

MOZ041-047>049-056>058-063>065-088>090-097-311000-
...EASTERN AND SOUTHERN MISSOURI...

CITY           SKY/WX    TMP DP  RH WIND       PRES   REMARKS
ST. LOUIS INTL PTCLDY    72  65  78 W3        30.12F
SPIRIT OF STL  CLEAR     67  67 100 CALM      30.11F
COLUMBIA       CLEAR     70  65  84 W6        30.15F
JEFFERSON CITY MOCLDY    66  65  96 NW3       30.14S FOG
ROLLA          CLEAR     65  60  84 CALM      30.14F HAZE
OSAGE BEACH    CLEAR     63  61  94 CALM      30.16S
SPRINGFIELD    PTCLDY    71  63  75 CALM      30.16S
BRANSON        PTCLDY    64  64 100 CALM      30.17S
JOPLIN         MOCLDY    72  65  78 E5        30.15S
WEST PLAINS    CLEAR     66  60  81 NW3       30.17S

$$

IAZ060-094-KSZ022-034>040-054-083-096-NEZ052-066-093-311000-
...KANSAS...SOUTHEAST NEBRASKA AND IOWA...

CITY           SKY/WX    TMP DP  RH WIND       PRES   REMARKS
TOPEKA         PTCLDY    65  64  97 CALM      30.16F
MANHATTAN      CLEAR     64  63  96 CALM      30.16F
EMPORIA        CLEAR     65  64  97 CALM      30.17F
CHANUTE        PTCLDY    69  67  93 CALM      30.15S
WICHITA        MOCLDY    75  66  73 CALM      30.16S
OMAHA          MOCLDY    70  66  87 N10G18    30.17R THUNDER
LINCOLN        CLEAR     70  63  78 SW3       30.15F
FALLS CITY     CLEAR     67  62  84 S5        30.14F
LAMONI         MOCLDY    70  63  78 SW8       30.15S
DES MOINES     PTCLDY    71  64  78 W5        30.10F

$$




USA.gov is the U.S. government's official web portal to all federal, state and local government web resources and services.